Showing default

YAOGAN-39 04C, 58145

Orbit data source: Space-Track

YAOGAN-39 04C, 58145 is a payload satellite owned by PLA GAD (CN) in LEO that was launched on Mon, 23 Oct 2023 UTC via a CHANG ZHENG 2D launch vehicle from the Xichang Space Center, China (XSC). Payload-class satellites include a variety of spacecraft equipped with specific instruments for various scientific and technological missions. These include communications satellites like Starlink; space stations such as the ISS; scientific satellites like the Hubble; Earth observation satellites from companies like Planet Labs, Umbra, and HawkEye 360; GPS; miniature CubeSats for education and research; and military/defense satellites.

Loading next visibility...
Identifier
58145, 2023-163E
Orbit
LEO
Last TLE update
9 hours ago
Origin
Manufacturer
DFH
Mission
Operational Defense Sigint
Bus & Motor
Unknown
Mass
~300 kg wet, ~300 kg dry
Launch date (UTC)
2023-10-23 (2 years ago)
Launch vehicle
CHANG ZHENG 2D
Launch site
Xichang Space Center, China (XSC)
Object type
Payload
Rocket body
Debris
Shape & HBR
Box + 2 Pan, 2.5 m
Radar Cross Section
11.063 m², Large (>1 m²)

Expand to show TLE details & history

TLE from 9 hours ago
0 YAOGAN-39 04C
1 58145U 23163E   25199.58598105  .00004754  00000-0  23821-3 0  9994
2 58145  34.9934 288.4326 0003715  15.5841 344.4986 15.16776508 96627
Epoch: 2025-07-18T14:03Z
TLE epoch observation values (Epoch: 2025-07-18T14:03:48.762Z)
Latitude
Longitude
140.84411°
Altitude
512.033 km
Speed
7.611 km/s
True Right ascension
19h 13m 43s
True Declination
0° 00' 00"
Sunlit
Object was in full shadow at epoch
Visualization orbit readout
Latitude
-33.74472°
Longitude
30.13698°
Altitude
525.649 km
Speed
7.6 km/s
Apparent Right ascension
11h 42m 36s
Apparent Declination
-83° 51' 42"
Sunlit
Object is in daylight
Visualization observer readout
Local Sidereal Time
11:52:20
Azimuth
180.313° SSW
Elevation
-33.783°
Doppler factor
1
Orbital elements
Apogee altitude
521.395 km
Perigee altitude
516.271 km
Semi-major axis
6,896.97 km
Eccentricity
0.00037
Inclination
34.9934°
RAAN
288.4326°
Arg. of periapsis
15.5841°
True anomaly
344.48722°
Mean anomaly
344.4986°
Eccentric anomaly
344.49291°
Mean motion
3.78927 °/min
Orbital period
95.01 mins
BSTAR
0.00023821
Loading maneuver chart data...
Loading SW <> Apogee altitude chart data...
Loading historical data...
Loading historical data...
Loading historical data...
Loading historical data...
Loading historical data...
Loading historical data...
Loading historical data...
Other satellites on launch #163 in the year 2023 (2023-10-23 UTC)
|